STARLINK-3098 (49442 NORAD) Tracking and Keplerian Element Data

This shows tracking and keplerian element data for the satellite.

Feedback or suggestion? Click here.




ElementValue
Catalog49442
NameSTARLINK-3098
Epoch Orbit371
Epoch Day339.91667824
Epoch Year2021
RAAN22.2321
Inclination53.2191
Eccentricity0.0001919
Argument of Perigee33.4264
Mean Anonmoly38.4765
Mean Motion15.7315521
Decay Rate0.00047933
L11 49442U 21104AL 21339.91667824 .00047933 00000+0 34464-3 0 9991
L22 49442 53.2191 22.2321 0001919 33.4264 38.4765 15.73155210 3714

Live tracking and technical data element details for STARLINK-3098 (NORAD 49442). STARLINK-3098 can be tracked NOW for your location showing map with azimuth and elevation plus other details from your city location.

Track the satellite on the map from your city or location and see movement details for azimuth, elevation, latitude, longitude, range, height, and movement on the map or in text.







IsCatalogInMostPopularTable: catalog: 49442, numindb: 1
Update: records affected: 1



GetName: 49442 STARLINK-3098

Hit Count: updated at: Wed, 08 Dec 2021 16:04:42 GMT